| time (UTC) | temp F | wind direction | speed MPH | gust MPH | rain 1hr in | rain 24hr in | rain mn in | humidity % | barometer mb |
| 20260505152904 | 73 | 319 | 8.0 | 20.0 | 0.00 | 0.04 | 0.00 | 50 | 1003.6 |
| 20260505152404 | 72 | 298 | 5.0 | 14.0 | 0.00 | 0.04 | 0.00 | 50 | 1003.7 |
| 20260505151404 | 70 | 320 | 4.0 | 15.0 | 0.00 | 0.04 | 0.00 | 53 | 1003.9 |
| 20260505150903 | 69 | 318 | 6.0 | 17.0 | 0.00 | 0.04 | 0.00 | 51 | 1003.9 |
| 20260505150404 | 69 | 313 | 5.0 | 14.0 | 0.00 | 0.04 | 0.00 | 51 | 1004.0 |
| 20260505140404 | 66 | 333 | 8.0 | 14.0 | 0.00 | 0.04 | 0.00 | 54 | 1004.0 |
| 20260505124404 | 60 | 319 | 7.0 | 14.0 | 0.00 | 0.04 | 0.00 | 63 | 1004.7 |
| 20260505123904 | 60 | 313 | 8.0 | 13.0 | 0.00 | 0.04 | 0.00 | 65 | 1004.6 |
| 20260505123404 | 59 | 328 | 8.0 | 17.0 | 0.00 | 0.04 | 0.00 | 65 | 1004.7 |
| 20260505122405 | 56 | 309 | 7.0 | 12.0 | 0.00 | 0.04 | 0.00 | 77 | 1004.7 |
| 20260505121904 | 55 | 144 | 0.0 | 0.0 | 0.00 | 0.04 | 0.00 | 78 | 1004.8 |
| 20260505121404 | 54 | 144 | 0.0 | 0.0 | 0.00 | 0.04 | 0.00 | 81 | 1004.9 |
| 20260505120904 | 53 | 144 | 0.0 | 0.0 | 0.00 | 0.04 | 0.00 | 81 | 1005.1 |
| 20260505120405 | 53 | 144 | 0.0 | 5.0 | 0.00 | 0.04 | 0.00 | 82 | 1005.2 |
| 20260505115905 | 52 | 49 | 0.0 | 0.0 | 0.00 | 0.04 | 0.00 | 85 | 1005.3 |
| 20260505115404 | 51 | 49 | 0.0 | 0.0 | 0.00 | 0.04 | 0.00 | 88 | 1005.3 |
| 20260505114904 | 49 | 49 | 0.0 | 0.0 | 0.00 | 0.04 | 0.00 | 90 | 1005.4 |
| 20260505114404 | 48 | 49 | 0.0 | 0.0 | 0.00 | 0.04 | 0.00 | 92 | 1005.4 |
| 20260505113904 | 47 | 49 | 0.0 | 0.0 | 0.00 | 0.04 | 0.00 | 94 | 1005.4 |
| 20260505113404 | 47 | 49 | 0.0 | 0.0 | 0.00 | 0.04 | 0.00 | 95 | 1005.3 |
| 20260505112904 | 46 | 49 | 0.0 | 0.0 | 0.00 | 0.04 | 0.00 | 97 | 1005.3 |
| 20260505111904 | 44 | 49 | 0.0 | 0.0 | 0.00 | 0.04 | 0.00 | 97 | 1005.6 |
| 20260505111405 | 43 | 49 | 0.0 | 0.0 | 0.00 | 0.04 | 0.00 | 97 | 1005.5 |
| 20260505110904 | 42 | 49 | 0.0 | 0.0 | 0.00 | 0.04 | 0.00 | 97 | 1005.5 |
| 20260505110404 | 42 | 49 | 0.0 | 0.0 | 0.00 | 0.04 | 0.00 | 97 | 1005.4 |
| 20260505101905 | 40 | 49 | 0.0 | 0.0 | 0.00 | 0.04 | 0.00 | 96 | 1005.5 |
| 20260505101405 | 40 | 49 | 0.0 | 0.0 | 0.00 | 0.04 | 0.00 | 96 | 1005.5 |
| 20260505100904 | 40 | 49 | 0.0 | 0.0 | 0.00 | 0.04 | 0.00 | 96 | 1005.3 |
| 20260505100404 | 39 | 49 | 0.0 | 0.0 | 0.00 | 0.04 | 0.00 | 96 | 1005.3 |
| 20260505095904 | 39 | 49 | 0.0 | 0.0 | 0.00 | 0.04 | 0.00 | 96 | 1005.3 |
| 20260505095404 | 39 | 49 | 0.0 | 0.0 | 0.00 | 0.04 | 0.00 | 96 | 1005.2 |
| 20260505094905 | 39 | 49 | 0.0 | 0.0 | 0.00 | 0.04 | 0.00 | 96 | 1005.1 |
| 20260505094404 | 39 | 49 | 0.0 | 0.0 | 0.00 | 0.04 | 0.00 | 96 | 1005.2 |
| 20260505093904 | 39 | 49 | 0.0 | 0.0 | 0.00 | 0.04 | 0.00 | 96 | 1005.2 |
| 20260505093404 | 40 | 49 | 0.0 | 0.0 | 0.00 | 0.04 | 0.00 | 96 | 1005.3 |
| 20260505092905 | 40 | 49 | 0.0 | 0.0 | 0.00 | 0.04 | 0.00 | 96 | 1005.3 |
| 20260505091404 | 40 | 49 | 0.0 | 0.0 | 0.00 | 0.04 | 0.00 | 96 | 1005.2 |
| 20260505090904 | 40 | 49 | 0.0 | 0.0 | 0.00 | 0.04 | 0.00 | 96 | 1005.3 |
| 20260505085904 | 40 | 49 | 0.0 | 0.0 | 0.00 | 0.04 | 0.00 | 96 | 1005.3 |
| 20260505085404 | 40 | 49 | 0.0 | 0.0 | 0.00 | 0.04 | 0.00 | 96 | 1005.4 |
| 20260505083904 | 40 | 49 | 0.0 | 0.0 | 0.00 | 0.04 | 0.00 | 96 | 1005.5 |
| 20260505083404 | 40 | 49 | 0.0 | 0.0 | 0.00 | 0.04 | 0.00 | 96 | 1005.5 |
| 20260505082904 | 40 | 49 | 0.0 | 0.0 | 0.00 | 0.04 | 0.00 | 96 | 1005.6 |
| 20260505082404 | 41 | 49 | 0.0 | 0.0 | 0.00 | 0.04 | 0.00 | 96 | 1005.6 |
| 20260505081904 | 41 | 49 | 0.0 | 0.0 | 0.00 | 0.04 | 0.00 | 96 | 1005.6 |
| 20260505081404 | 41 | 49 | 0.0 | 0.0 | 0.00 | 0.04 | 0.00 | 96 | 1005.6 |
| 20260505080904 | 41 | 49 | 0.0 | 0.0 | 0.00 | 0.04 | 0.00 | 96 | 1005.6 |
| 20260505075904 | 41 | 49 | 0.0 | 0.0 | 0.00 | 0.04 | 0.00 | 96 | 1005.7 |
| 20260505075404 | 41 | 49 | 0.0 | 0.0 | 0.00 | 0.04 | 0.00 | 95 | 1005.7 |
| 20260505074904 | 41 | 49 | 0.0 | 0.0 | 0.00 | 0.04 | 0.00 | 95 | 1005.7 |
| 20260505074404 | 40 | 49 | 0.0 | 0.0 | 0.00 | 0.04 | 0.00 | 95 | 1005.7 |
| 20260505073904 | 41 | 49 | 0.0 | 0.0 | 0.00 | 0.04 | 0.00 | 95 | 1005.7 |
| 20260505073404 | 40 | 49 | 0.0 | 0.0 | 0.00 | 0.04 | 0.00 | 95 | 1005.7 |
| 20260505072905 | 40 | 49 | 0.0 | 0.0 | 0.00 | 0.04 | 0.00 | 95 | 1005.8 |
| 20260505072403 | 40 | 49 | 0.0 | 0.0 | 0.00 | 0.04 | 0.00 | 95 | 1005.8 |
| 20260505071404 | 40 | 49 | 0.0 | 0.0 | 0.00 | 0.04 | 0.00 | 94 | 1005.7 |
| 20260505070904 | 41 | 49 | 0.0 | 0.0 | 0.00 | 0.04 | 0.00 | 95 | 1005.8 |
| 20260505065904 | 41 | 49 | 0.0 | 0.0 | 0.00 | 0.04 | 0.00 | 94 | 1005.7 |
| 20260505065404 | 41 | 49 | 0.0 | 0.0 | 0.00 | 0.04 | 0.00 | 94 | 1005.7 |
| 20260505064904 | 41 | 49 | 0.0 | 0.0 | 0.00 | 0.04 | 0.00 | 94 | 1005.7 |
| 20260505064404 | 41 | 49 | 0.0 | 0.0 | 0.00 | 0.04 | 0.00 | 94 | 1005.7 |
| 20260505062904 | 42 | 49 | 0.0 | 0.0 | 0.00 | 0.04 | 0.00 | 94 | 1005.7 |
| 20260505062405 | 42 | 49 | 0.0 | 0.0 | 0.00 | 0.04 | 0.00 | 94 | 1005.6 |
| 20260505061903 | 42 | 49 | 0.0 | 0.0 | 0.00 | 0.04 | 0.00 | 93 | 1005.6 |
| 20260505061404 | 42 | 49 | 0.0 | 0.0 | 0.00 | 0.04 | 0.00 | 93 | 1005.6 |
| 20260505060904 | 42 | 49 | 0.0 | 0.0 | 0.00 | 0.04 | 0.00 | 93 | 1005.6 |
| 20260505060404 | 42 | 49 | 0.0 | 0.0 | 0.00 | 0.04 | 0.00 | 93 | 1005.6 |
| 20260505055904 | 42 | 49 | 0.0 | 0.0 | 0.00 | 0.04 | 0.00 | 92 | 1005.6 |
| 20260505055404 | 42 | 49 | 0.0 | 0.0 | 0.00 | 0.04 | 0.00 | 92 | 1005.6 |
| 20260505054904 | 43 | 49 | 0.0 | 0.0 | 0.00 | 0.04 | 0.00 | 91 | 1005.7 |
| 20260505054404 | 43 | 49 | 0.0 | 0.0 | 0.00 | 0.04 | 0.00 | 90 | 1005.6 |
| 20260505053904 | 44 | 49 | 0.0 | 0.0 | 0.00 | 0.04 | 0.00 | 89 | 1005.7 |
| 20260505053404 | 45 | 49 | 0.0 | 0.0 | 0.00 | 0.04 | 0.00 | 90 | 1005.6 |
| 20260505052904 | 45 | 49 | 0.0 | 0.0 | 0.00 | 0.04 | 0.00 | 93 | 1005.6 |
| 20260505052404 | 44 | 49 | 0.0 | 0.0 | 0.00 | 0.04 | 0.00 | 92 | 1005.6 |
| 20260505051904 | 44 | 49 | 0.0 | 0.0 | 0.00 | 0.04 | 0.00 | 92 | 1005.6 |
| 20260505051404 | 43 | 49 | 0.0 | 0.0 | 0.00 | 0.04 | 0.00 | 91 | 1005.7 |
| 20260505050904 | 44 | 49 | 0.0 | 0.0 | 0.00 | 0.04 | 0.00 | 88 | 1005.7 |
| 20260505050404 | 45 | 49 | 0.0 | 0.0 | 0.00 | 0.04 | 0.00 | 90 | 1005.7 |
| 20260505041404 | 46 | 49 | 0.0 | 0.0 | 0.00 | 0.04 | 0.00 | 88 | 1005.2 |
| 20260505040904 | 47 | 49 | 0.0 | 0.0 | 0.00 | 0.04 | 0.00 | 89 | 1005.2 |
| 20260505040404 | 47 | 49 | 0.0 | 0.0 | 0.00 | 0.04 | 0.00 | 89 | 1005.2 |
| 20260505035904 | 47 | 49 | 0.0 | 0.0 | 0.00 | 0.04 | 0.04 | 88 | 1005.2 |
| 20260505035404 | 47 | 49 | 0.0 | 0.0 | 0.00 | 0.04 | 0.04 | 88 | 1005.1 |
| 20260505034404 | 47 | 49 | 0.0 | 0.0 | 0.00 | 0.04 | 0.04 | 87 | 1005.0 |
| 20260505033904 | 48 | 49 | 0.0 | 0.0 | 0.00 | 0.04 | 0.04 | 87 | 1004.9 |
| 20260505033404 | 48 | 49 | 0.0 | 0.0 | 0.00 | 0.04 | 0.04 | 87 | 1004.9 |
| 20260505032905 | 48 | 49 | 0.0 | 0.0 | 0.00 | 0.04 | 0.04 | 87 | 1004.9 |
| 20260505032405 | 48 | 49 | 0.0 | 0.0 | 0.00 | 0.04 | 0.04 | 86 | 1004.9 |
| 20260505031905 | 48 | 49 | 0.0 | 0.0 | 0.00 | 0.04 | 0.04 | 86 | 1004.9 |
| 20260505031404 | 49 | 49 | 0.0 | 0.0 | 0.00 | 0.04 | 0.04 | 84 | 1004.9 |
| 20260505030904 | 49 | 49 | 0.0 | 0.0 | 0.00 | 0.04 | 0.04 | 83 | 1004.8 |
| 20260505030405 | 50 | 49 | 0.0 | 0.0 | 0.00 | 0.04 | 0.04 | 81 | 1004.9 |
| 20260505025905 | 50 | 49 | 0.0 | 0.0 | 0.00 | 0.04 | 0.04 | 80 | 1004.8 |
| 20260505024904 | 51 | 49 | 0.0 | 0.0 | 0.00 | 0.04 | 0.04 | 82 | 1004.9 |
| 20260505024404 | 51 | 49 | 0.0 | 0.0 | 0.00 | 0.04 | 0.04 | 82 | 1005.0 |
| 20260505023904 | 50 | 49 | 0.0 | 0.0 | 0.00 | 0.04 | 0.04 | 82 | 1005.0 |
| 20260505023404 | 50 | 49 | 0.0 | 0.0 | 0.00 | 0.04 | 0.04 | 82 | 1005.0 |
| 20260505022404 | 50 | 49 | 0.0 | 0.0 | 0.00 | 0.04 | 0.04 | 82 | 1005.0 |
| 20260505021905 | 51 | 49 | 0.0 | 0.0 | 0.00 | 0.04 | 0.04 | 81 | 1005.1 |
| 20260505021405 | 51 | 49 | 0.0 | 0.0 | 0.00 | 0.04 | 0.04 | 80 | 1005.1 |
| 20260505020904 | 51 | 49 | 0.0 | 0.0 | 0.00 | 0.04 | 0.04 | 80 | 1005.1 |
| 20260505020404 | 51 | 49 | 0.0 | 0.0 | 0.00 | 0.04 | 0.04 | 80 | 1005.1 |
| 20260505015904 | 51 | 49 | 0.0 | 0.0 | 0.00 | 0.04 | 0.04 | 80 | 1005.1 |
| 20260505015404 | 52 | 49 | 0.0 | 0.0 | 0.00 | 0.04 | 0.04 | 80 | 1005.0 |
| 20260505014904 | 52 | 49 | 0.0 | 0.0 | 0.00 | 0.04 | 0.04 | 79 | 1005.0 |
| 20260505014404 | 52 | 49 | 0.0 | 0.0 | 0.00 | 0.04 | 0.04 | 79 | 1004.9 |
| 20260505013904 | 52 | 49 | 0.0 | 0.0 | 0.00 | 0.04 | 0.04 | 79 | 1004.8 |
| 20260505013404 | 52 | 49 | 0.0 | 0.0 | 0.00 | 0.04 | 0.04 | 78 | 1004.8 |
| 20260505012404 | 53 | 49 | 0.0 | 0.0 | 0.00 | 0.04 | 0.04 | 77 | 1004.7 |
| 20260505011405 | 53 | 49 | 0.0 | 0.0 | 0.00 | 0.04 | 0.04 | 76 | 1004.7 |
| 20260505010905 | 53 | 49 | 0.0 | 0.0 | 0.00 | 0.04 | 0.04 | 76 | 1004.6 |
| 20260505010404 | 54 | 49 | 0.0 | 0.0 | 0.00 | 0.04 | 0.04 | 75 | 1004.5 |
| 20260505005404 | 53 | 49 | 0.0 | 0.0 | 0.00 | 0.04 | 0.04 | 76 | 1004.5 |
| 20260505004404 | 54 | 49 | 0.0 | 0.0 | 0.00 | 0.04 | 0.04 | 74 | 1004.4 |
| 20260505003904 | 54 | 49 | 0.0 | 0.0 | 0.00 | 0.04 | 0.04 | 74 | 1004.4 |
| 20260505003404 | 54 | 49 | 0.0 | 0.0 | 0.00 | 0.04 | 0.04 | 73 | 1004.3 |
| 20260505002904 | 55 | 49 | 0.0 | 0.0 | 0.00 | 0.04 | 0.04 | 72 | 1004.2 |
| 20260505001904 | 55 | 49 | 0.0 | 0.0 | 0.00 | 0.04 | 0.04 | 70 | 1004.0 |
| 20260505001404 | 56 | 49 | 0.0 | 0.0 | 0.00 | 0.04 | 0.04 | 68 | 1003.9 |
| 20260505000904 | 56 | 49 | 0.0 | 0.0 | 0.00 | 0.04 | 0.04 | 67 | 1003.8 |
| 20260505000405 | 57 | 49 | 1.0 | 3.0 | 0.00 | 0.04 | 0.04 | 65 | 1003.7 |
| 20260504235904 | 58 | 49 | 1.0 | 3.0 | 0.00 | 0.04 | 0.04 | 62 | 1003.6 |
| 20260504235404 | 59 | 49 | 0.0 | 0.0 | 0.00 | 0.04 | 0.04 | 60 | 1003.6 |
| 20260504234904 | 59 | 49 | 0.0 | 0.0 | 0.00 | 0.04 | 0.04 | 59 | 1003.5 |
| 20260504234404 | 59 | 49 | 0.0 | 0.0 | 0.00 | 0.04 | 0.04 | 60 | 1003.4 |
| 20260504233904 | 59 | 49 | 0.0 | 0.0 | 0.00 | 0.04 | 0.04 | 60 | 1003.4 |
| 20260504232904 | 62 | 49 | 0.0 | 0.0 | 0.00 | 0.04 | 0.04 | 52 | 1003.3 |
| 20260504232404 | 62 | 49 | 0.0 | 0.0 | 0.00 | 0.04 | 0.04 | 51 | 1003.2 |
| 20260504231404 | 62 | 49 | 0.0 | 0.0 | 0.00 | 0.04 | 0.04 | 53 | 1003.2 |
| 20260504230904 | 62 | 49 | 0.0 | 0.0 | 0.00 | 0.04 | 0.04 | 55 | 1003.1 |
| 20260504230403 | 63 | 49 | 0.0 | 0.0 | 0.00 | 0.04 | 0.04 | 51 | 1003.1 |
| 20260504225904 | 63 | 49 | 0.0 | 0.0 | 0.00 | 0.04 | 0.04 | 50 | 1003.1 |
| 20260504225404 | 63 | 49 | 0.0 | 0.0 | 0.00 | 0.04 | 0.04 | 50 | 1003.0 |
| 20260504223904 | 64 | 49 | 0.0 | 2.0 | 0.00 | 0.04 | 0.04 | 50 | 1002.8 |
| 20260504223404 | 64 | 49 | 0.0 | 0.0 | 0.00 | 0.04 | 0.04 | 50 | 1002.8 |
| 20260504222404 | 65 | 49 | 0.0 | 0.0 | 0.00 | 0.04 | 0.04 | 48 | 1002.9 |
| 20260504221404 | 65 | 49 | 1.0 | 3.0 | 0.00 | 0.04 | 0.04 | 49 | 1002.9 |
| 20260504220904 | 65 | 49 | 1.0 | 5.0 | 0.00 | 0.04 | 0.04 | 49 | 1002.9 |
| 20260504220404 | 65 | 76 | 1.0 | 5.0 | 0.00 | 0.04 | 0.04 | 47 | 1002.9 |
| 20260504215904 | 65 | 95 | 0.0 | 2.0 | 0.00 | 0.04 | 0.04 | 48 | 1002.9 |
| 20260504214904 | 65 | 18 | 0.0 | 0.0 | 0.00 | 0.04 | 0.04 | 49 | 1003.0 |
| 20260504214404 | 65 | 16 | 0.0 | 3.0 | 0.00 | 0.04 | 0.04 | 50 | 1003.1 |
| 20260504213904 | 64 | 16 | 3.0 | 10.0 | 0.00 | 0.04 | 0.04 | 50 | 1003.1 |
| 20260504212904 | 65 | 354 | 3.0 | 9.0 | 0.00 | 0.04 | 0.04 | 51 | 1003.1 |
| 20260504212404 | 64 | 58 | 2.0 | 10.0 | 0.00 | 0.04 | 0.04 | 49 | 1003.2 |
| 20260504211904 | 64 | 44 | 2.0 | 9.0 | 0.00 | 0.04 | 0.04 | 51 | 1003.2 |
| 20260504211404 | 63 | 51 | 2.0 | 6.0 | 0.00 | 0.04 | 0.04 | 51 | 1003.2 |
| 20260504210904 | 63 | 32 | 1.0 | 12.0 | 0.00 | 0.04 | 0.04 | 52 | 1003.2 |
| 20260504210404 | 63 | 78 | 2.0 | 13.0 | 0.00 | 0.04 | 0.04 | 51 | 1003.1 |
| 20260504205904 | 63 | 48 | 3.0 | 12.0 | 0.00 | 0.04 | 0.04 | 51 | 1003.2 |
| 20260504205404 | 63 | 42 | 4.0 | 12.0 | 0.00 | 0.04 | 0.04 | 51 | 1003.2 |
| 20260504204904 | 62 | 45 | 0.0 | 12.0 | 0.00 | 0.04 | 0.04 | 53 | 1003.2 |
| 20260504204404 | 62 | 42 | 1.0 | 9.0 | 0.00 | 0.04 | 0.04 | 51 | 1003.2 |
| 20260504203904 | 62 | 39 | 12.0 | 17.0 | 0.00 | 0.04 | 0.04 | 51 | 1003.2 |
| 20260504202904 | 64 | 27 | 6.0 | 16.0 | 0.00 | 0.04 | 0.04 | 50 | 1003.2 |
| 20260504202404 | 63 | 49 | 3.0 | 12.0 | 0.00 | 0.04 | 0.04 | 52 | 1003.1 |
| 20260504201904 | 63 | 72 | 4.0 | 18.0 | 0.00 | 0.04 | 0.04 | 51 | 1003.1 |
| 20260504201404 | 63 | 64 | 5.0 | 13.0 | 0.00 | 0.04 | 0.04 | 51 | 1003.2 |
| 20260504200904 | 64 | 27 | 9.0 | 15.0 | 0.00 | 0.04 | 0.04 | 51 | 1003.1 |
| 20260504200404 | 63 | 28 | 7.0 | 15.0 | 0.00 | 0.04 | 0.04 | 51 | 1003.2 |
| 20260504195904 | 63 | 31 | 3.0 | 13.0 | 0.00 | 0.04 | 0.04 | 54 | 1003.2 |
| 20260504194904 | 62 | 101 | 3.0 | 12.0 | 0.00 | 0.04 | 0.04 | 53 | 1003.1 |
| 20260504193904 | 62 | 40 | 1.0 | 12.0 | 0.00 | 0.04 | 0.04 | 53 | 1003.4 |
| 20260504193404 | 63 | 43 | 2.0 | 12.0 | 0.00 | 0.04 | 0.04 | 54 | 1003.4 |
| 20260504192904 | 62 | 32 | 9.0 | 16.0 | 0.00 | 0.04 | 0.04 | 58 | 1003.4 |
| 20260504192404 | 61 | 13 | 5.0 | 13.0 | 0.00 | 0.04 | 0.04 | 56 | 1003.3 |
| 20260504190905 | 60 | 35 | 8.0 | 13.0 | 0.00 | 0.04 | 0.04 | 58 | 1003.4 |
| 20260504190404 | 60 | 13 | 4.0 | 12.0 | 0.00 | 0.04 | 0.04 | 61 | 1003.5 |
| 20260504185904 | 59 | 31 | 5.0 | 12.0 | 0.00 | 0.04 | 0.04 | 59 | 1003.5 |
| 20260504184404 | 59 | 42 | 7.0 | 13.0 | 0.00 | 0.04 | 0.04 | 59 | 1003.8 |
| 20260504183405 | 59 | 37 | 3.0 | 12.0 | 0.00 | 0.04 | 0.04 | 61 | 1003.9 |
| 20260504182906 | 59 | 62 | 9.0 | 17.0 | 0.00 | 0.04 | 0.04 | 63 | 1004.0 |
| 20260504182404 | 59 | 17 | 9.0 | 17.0 | 0.00 | 0.04 | 0.04 | 64 | 1004.0 |
| 20260504181904 | 58 | 9 | 9.0 | 17.0 | 0.00 | 0.04 | 0.04 | 62 | 1004.0 |
| 20260504181404 | 59 | 16 | 9.0 | 23.0 | 0.00 | 0.04 | 0.04 | 64 | 1004.0 |
| 20260504180905 | 60 | 24 | 3.0 | 18.0 | 0.00 | 0.04 | 0.04 | 66 | 1004.0 |
| 20260504180404 | 59 | 12 | 10.0 | 17.0 | 0.00 | 0.04 | 0.04 | 67 | 1003.9 |
| 20260504175405 | 58 | 24 | 5.0 | 12.0 | 0.00 | 0.04 | 0.04 | 72 | 1004.0 |
| 20260504174904 | 57 | 9 | 7.0 | 12.0 | 0.01 | 0.04 | 0.04 | 74 | 1004.0 |
| 20260504174404 | 56 | 68 | 0.0 | 3.0 | 0.01 | 0.04 | 0.04 | 76 | 1004.1 |
| 20260504173905 | 56 | 79 | 2.0 | 10.0 | 0.01 | 0.04 | 0.04 | 76 | 1004.1 |
| 20260504173404 | 56 | 81 | 6.0 | 12.0 | 0.01 | 0.04 | 0.04 | 76 | 1004.2 |
| 20260504172904 | 55 | 80 | 5.0 | 12.0 | 0.01 | 0.04 | 0.04 | 81 | 1004.3 |
| 20260504172404 | 54 | 67 | 3.0 | 9.0 | 0.01 | 0.04 | 0.04 | 80 | 1004.3 |
| 20260504171905 | 54 | 66 | 3.0 | 9.0 | 0.02 | 0.04 | 0.04 | 80 | 1004.2 |
| 20260504171405 | 54 | 49 | 0.0 | 0.0 | 0.03 | 0.04 | 0.04 | 83 | 1004.4 |
| 20260504160404 | 54 | 32 | 2.0 | 8.0 | 0.00 | 0.00 | 0.00 | 71 | 1004.0 |